Find Starlink 30285

NORAD ID: 57840 Int'l Des: 2023-141 Owner: SPXS Country: US Constellation: starlink operational
LEOCIRCULAR

リアルタイム位置

3D地球を読み込み中...

Starlink 30285について

説明を読み込み中...

次回通過

Passes for default location (London). Set your location on the main map for personalized predictions.

高度履歴

Loading altitude history...

軌道要素

1 57840U 23141A 26125.50001156 .00047014 00000-0 15189-2 0 9991
2 57840 53.1596 20.2366 0001229 101.0295 342.3042 15.31664917 5653
Epoch: May 5, 2026 • Age: 4 hours

現在のステータス

高度 470.9 km
速度 7.63 km/s
衛星直下点 15.69°N, 78.42°W
打ち上げ日 Sep 12, 2023
運用期間 2.6 years
タイプ internet

技術仕様

分類 Payload
質量 730.00 kg
乾燥質量 700.00 kg
総質量 730.00 kg
長さ 0.30 m
直径 4.10 m
スパン 29.00 m
形状 Box + pan
製造者 SPXS
バスタイプ Starlink V2M
フェーズステータス In Orbit
所有者/国 SPXS/US

Most Searched